Lid_Strength_Index
2 1 -1 -1 -1 -1 -1 -1 -1 -1 -1 -1 -1 -1 -1 -1 -1 -1 -1 -1 -2 -1 -1 -1 -1 -2 -2 -1 -2 -1 -1 -1 -1 -1 -2 -1 -1 -1 -1 -2 -1 -0 -1
2 0 -1 -1 -1 -1 -1 -1 -1 -1 -1 -1 -1 -1 -1 -1 -1 -1 -1 -1 -1 -1 -1 -2 -2 -1 -1 -1 -2 -2 -2 -1 -2 -1 -1 0 -1 -2 -1 -2 -1 -1 -1
1 0 0 -1 -2 -1 -1 -2 -1 -1 -1 -1 -1 -1 -1 -1 -1 -1 -1 -1 -1 -1 -2 -2 -1 -1 -1 -1 -2 -1 -2 -2 -1 0 1 2 3 -1 -1 -1 -2 -1 -1
0 0 1 -1 -2 -2 -2 -1 -1 -1 -1 -1 -1 -1 -1 -1 -2 -1 -1 -1 -1 -1 -1 -1 -1 -1 -1 -1 -2 -1 -1 -0 1 2 5 3 3 -1 -1 -1 -1 -1 -1
1 1 1 -1 -1 -1 -2 -1 -2 -2 -1 -1 -1 -1 -2 -1 -1 -1 -1 -1 -1 -1 -2 -2 -1 -0 -1 -1 -0 -0 -0 1 2 4 4 3 2 -1 -1 -1 -1 -1 -2
3 2 -0 -1 -1 -1 -1 -1 -1 -2 -1 -2 -2 -1 -1 -2 -2 -2 -2 -2 -2 -2 -1 -0 0 0 0 1 1 1 1 2 4 6 4 4 4 -1 -1 -1 -1 -2 -2
4 3 1 -1 -1 -1 -1 -1 -2 -2 -2 -2 -1 -1 -2 -2 -1 -1 -1 -1 -1 -0 0 1 1 1 1 1 1 2 3 4 8 8 6 5 3 -2 -2 -2 -2 -1 -1
3 3 2 0 -1 -1 -1 -1 -2 -2 -2 -1 -1 -2 -2 -1 -1 -0 -0 0 0 0 1 1 1 1 2 2 2 3 4 5 8 9 7 5 1 -1 -1 -1 -1 -1 -1
3 3 3 1 -0 -0 -0 -1 -1 -2 -1 -2 -2 -1 -0 -0 0 1 1 1 1 1 1 2 2 2 3 3 4 4 5 6 11 10 7 6 0 -1 -1 -0 0 0 -0
5 4 3 4 2 2 2 -0 -1 -1 -2 -2 -1 -0 0 0 1 1 1 1 1 1 2 3 3 4 4 5 5 6 7 8 12 11 9 6 2 0 -0 -0 0 0 0
6 5 5 5 4 4 4 2 0 -0 -1 -0 0 1 3 7 6 6 4 1 2 3 3 4 5 5 6 6 7 7 9 12 12 12 10 5 3 2 1 1 0 0 0
7 6 6 6 5 5 4 4 4 3 4 5 6 7 9 9 9 7 4 2 3 3 4 5 6 8 11 13 13 11 14 13 13 13 11 6 4 3 2 2 1 1 1
6 6 6 7 7 7 6 6 6 7 7 8 8 10 11 11 9 10 10 11 11 10 12 12 13 14 14 14 14 14 14 14 14 14 11 8 6 5 4 3 2 2 1
8 7 7 7 7 8 7 7 7 8 9 9 10 11 12 12 12 12 13 14 14 14 15 15 15 15 14 14 14 15 15 15 15 14 13 9 7 6 5 4 2 2 2
8 7 7 7 7 8 8 8 9 9 9 10 11 12 12 12 13 14 14 15 15 15 15 16 15 15 15 15 15 15 15 15 15 15 15 10 7 6 5 3 3 2 2
9 8 8 8 7 8 8 8 8 9 10 11 12 11 12 12 13 14 14 15 15 16 16 16 16 16 16 15 16 15 15 15 15 15 15 14 9 7 5 4 3 2 2
10 9 9 8 8 8 8 9 9 9 10 11 11 12 13 13 14 14 14 15 15 16 16 16 16 16 16 16 16 16 16 16 16 15 15 14 13 8 5 4 4 3 3
9 11 10 8 9 9 9 10 10 10 10 11 12 12 12 13 14 14 14 15 15 16 16 16 17 17 17 17 17 17 17 16 16 15 15 15 13 12 7 6 6 5 5
9 10 11 10 10 9 9 10 11 11 11 11 12 12 13 13 14 14 14 15 15 16 17 17 17 18 18 18 17 17 17 17 16 16 16 16 14 14 14 10 10 8 7
10 9 10 11 10 10 10 11 13 13 12 13 13 13 13 13 15 15 15 16 16 17 17 17 18 18 18 18 17 18 18 17 17 17 17 16 15 16 16 15 15 14 10
11 11 11 12 11 11 11 12 12 12 12 13 13 13 14 14 15 15 16 16 17 17 17 18 18 18 18 19 19 19 18 17 18 18 18 17 17 17 17 16 16 15 15
11 11 11 11 11 11 11 11 11 11 12 12 13 14 14 15 15 15 16 16 17 18 18 18 18 19 18 19 19 20 20 19 18 18 18 17 18 17 17 17 17 16 16
12 12 11 11 12 11 11 11 15 15 16 15 15 14 14 15 15 15 16 16 17 17 17 18 18 18 19 19 19 19 20 20 20 19 18 18 18 18 18 17 17 17 16
12 12 12 12 12 12 12 12 13 13 13 13 13 13 14 15 15 16 16 16 17 17 18 18 18 19 19 19 19 18 19 19 20 21 19 19 18 18 18 18 18 17 17
12 13 13 13 13 13 12 12 13 12 12 14 14 14 15 16 16 16 16 17 17 17 18 18 18 19 19 19 19 19 19 20 19 20 21 20 19 19 19 18 18 18 17
14 14 14 14 13 13 13 13 13 13 14 16 16 15 15 16 16 16 16 17 17 17 18 18 18 18 19 19 19 19 19 20 20 20 21 21 21 19 19 19 19 18 17